Regional Weather Roundup
Issued by NWS Bismarck, ND

Home | Current Version | Previous Version | Text Only | Print | Product List | Glossary On
Versions: 1 2 3 4 5 6 7 8 9 10 11 12 13 14 15 16 17 18 19 20 21 22 23 24 25 26 27 28 29 30 31 32 33 34 35 36 37 38 39 40 41 42 43 44 45 46 47 48 49 50
000
ASUS43 KBIS 272210
RWRBIS

NWR BROADCAST TEXT
NATIONAL WEATHER SERVICE BISMARCK ND
500 PM CDT TUE JUN 27 2017

NOTE: "FAIR" INDICATES FEW OR NO CLOUDS BELOW 12,000 FEET WITH NO
SIGNIFICANT WEATHER AND/OR OBSTRUCTIONS TO VISIBILITY.


CITY           SKY/WX    TMP DP  RH WIND       PRES   REMARKS
WILLISTON      MOSUNNY   89  49  25 NW18      29.55R
MINOT          MOSUNNY   88  56  33 S15       29.53F
MINOT AFB      MOSUNNY   85  56  38 S12       29.52F
BISMARCK       CLOUDY    90  62  39 SE17G29   29.53F HX  90
DICKINSON      CLOUDY    85  46  25 SE3       29.52F
GARRISON         N/A     80  58  46 S12       29.54F
HETTINGER ARPT CLOUDY    90  46  21 W14       29.57R
JAMESTOWN      SUNNY     82  48  30 S25G33    29.64F
HAZEN          FAIR      86  57  37 VRB7      29.52F
LINTON           N/A    N/A N/A N/A S24G30    29.58F
MANDAN         FAIR      88  61  40 S16       29.54F
STANLEY        FAIR      84  54  34 SW9       29.58S
TIOGA          FAIR      81  52  36 W12       29.57S
WATFORD CITY   FAIR      84  54  34 NW12G17   29.53S
$$

CITY           SKY/WX    TMP DP  RH WIND       PRES   REMARKS
GRAND FORKS    MOSUNNY   80  49  33 S22G30    29.68F
GRAND FORKS AF SUNNY     78  49  35 S21G31    29.68F
DEVILS LAKE    SUNNY     79  50  36 S20       29.63F
FARGO          PTSUNNY   77  45  32 S23G31    29.71F
CAVALIER       FAIR      81  46  30 S23G29    29.64F
GRAFTON        FAIR      79  46  31 S22G30    29.68F
GWINNER        CLOUDY    79  48  34 SE24      29.68F
LANGDON        FAIR      77  52  41 S24G31    29.66F
ROLLA            N/A     77  55  47 S18G26    29.61S
$$

CITY           SKY/WX    TMP DP  RH WIND       PRES   REMARKS
ABERDEEN       MOSUNNY   83  48  29 S23G32    29.66F
MOBRIDGE       SUNNY     89  56  32 S23G33    29.53F
BUFFALO          N/A     89  44  20 NW31G44   29.55S
RAPID CITY     SUNNY     91  44  19 N12G22    29.61F
GLASGOW        MOSUNNY   83  52  34 NW17G29   29.61S
SIDNEY         CLOUDY    89  51  27 NW18G28   29.55S
WOLF POINT     CLOUDY    88  49  25 NW10G21   29.58F
GLENDIVE       CLOUDY    84  50  30 NW17      29.61S
MILES CITY     CLOUDY    76  51  41 W26G36    29.67R
BAKER          CLOUDY    82  45  27 NW20G28   29.64R
$$

CITY           SKY/WX    TMP DP  RH WIND       PRES   REMARKS
BILLINGS       CLOUDY    79  47  32 W35G41    29.77R
GREAT FALLS    PTSUNNY   78  50  37 NE7       29.78R
REGINA         LGT RAIN  64  61  88 W17G24    29.61R
ESTEVAN        LGT RAIN  77  55  47 SW8       29.54S
$$




USA.gov is the U.S. government's official web portal to all federal, state and local government web resources and services.